sat.trackr.live / text

‹ back to catalog

STARLINK-4485

NORAD 53541 · 2022-101Q

PAYLOAD ACTIVE UNKNOWN

§ Identity

Operator
Country
US
Launch date
2022-08-19
Launch site
AFETR
Launch vehicle
Mass (kg)
RCS (m²)

Purposes: comms

External: N2YO · Heavens-Above · Gunter

§ Orbital elements

Epoch: 2026-09-19T17:37:10.898688Z

Period
95.44 min
Inclination
53.1610°
Eccentricity
0.0001032
Mean motion
15.08834250 rev/d
Perigee alt
539.0 km
Apogee alt
540.5 km
Semi-major
6,917.9 km
B*
8.0095e-6
RAAN
282.3647°
Arg perigee
82.9471°
Mean anomaly
277.1638°
Rev number
22,615

§ Raw data

STARLINK-44851 53541U 22101Q   26262.73415392 -.00000160  00000+0  80095-5 0  99902 53541  53.1610 282.3647 0001032  82.9471 277.1638 15.08834250226151

JSON: /api/v1/satellites/53541 · /tle

For live sub-satellite position, see the globe view (requires WebGL).

§ Visibility from observer

Set your observer location to see the next 7 days of passes ≥ 10°. The values pass through the URL so the page stays shareable.

No JS? Fill the form by hand. The geolocation button needs JavaScript.